Probability
1 0 0 0 0 0 0 0 0 0 0 0 0 0 0 0 0 0 0 0 0 0 0 0 0 0 0 0 0 0 0 0 0 0 0 0 0 0 0 0 0 0 0 0
1 0 0 0 0 0 0 0 0 0 0 0 0 0 0 0 0 0 0 0 0 0 0 0 0 0 0 0 0 0 0 0 0 0 0 0 0 0 0 0 0 0 0 0
1 0 0 0 0 0 0 0 0 0 0 0 0 0 0 0 0 0 0 0 0 0 0 0 0 0 0 0 0 0 0 0 0 0 0 0 0 0 0 0 0 0 0 0
0 0 0 0 0 0 0 0 0 0 0 0 0 0 0 0 0 0 0 0 0 0 0 0 0 0 0 0 0 0 0 0 0 0 0 0 0 0 0 0 0 0 0 0
0 0 0 0 0 0 0 0 0 0 0 0 0 0 0 0 0 0 0 0 0 0 0 0 0 0 0 0 0 0 0 0 0 0 0 0 0 0 0 0 0 0 0 0
0 0 0 0 0 0 0 0 0 0 0 0 0 0 0 0 0 0 0 0 0 0 0 0 0 0 0 0 0 0 0 0 0 0 0 0 0 0 0 0 0 0 0 0
0 0 0 0 0 0 0 0 0 0 0 0 0 0 0 0 0 0 0 0 0 0 0 0 0 0 0 0 0 0 0 0 0 0 0 0 0 0 0 0 0 0 0 0
0 0 0 0 0 0 0 0 0 0 0 0 0 0 0 0 0 0 0 0 0 0 0 0 0 0 0 0 0 0 0 0 0 0 0 0 0 0 0 0 0 0 0 0
0 0 0 0 0 0 0 0 0 0 0 0 0 0 0 0 0 0 0 0 0 0 0 0 0 0 0 0 0 0 0 0 0 0 0 0 0 0 0 0 0 0 0 0
0 0 0 0 0 0 0 0 0 0 0 0 0 0 0 0 0 0 0 0 0 0 0 0 0 0 0 0 0 0 0 0 0 0 0 0 0 0 0 0 0 0 0 0
0 0 0 0 0 0 0 0 0 0 0 0 0 0 0 0 0 0 0 0 0 0 0 0 0 0 0 0 0 0 0 0 0 0 0 0 0 0 0 0 0 0 0 0
0 0 0 0 0 0 0 0 0 0 0 0 0 0 0 0 0 0 0 0 0 0 0 0 0 0 0 0 0 0 0 0 0 0 0 0 0 0 0 0 0 0 0 0
0 0 0 0 0 0 0 0 0 0 0 0 0 0 0 0 0 0 0 0 0 0 0 0 0 0 0 0 0 0 0 0 0 0 0 0 0 0 0 0 0 0 0 0
0 0 0 0 0 0 0 0 0 0 0 0 0 0 0 0 0 0 0 0 0 0 0 0 0 0 0 0 0 0 0 0 0 0 0 0 0 0 0 0 0 0 0 0
0 0 0 0 0 0 0 0 0 0 0 0 0 0 0 0 0 0 0 0 0 0 0 0 0 0 0 0 0 0 0 0 0 0 0 0 0 0 0 0 0 0 0 0
0 0 0 0 0 0 0 0 0 0 0 0 0 0 0 0 0 0 0 0 0 0 0 0 0 0 0 0 0 0 0 0 0 0 0 0 0 0 0 0 0 0 0 0
0 0 0 0 0 0 0 0 0 0 0 0 0 0 0 0 0 0 0 0 0 0 0 0 0 0 0 0 0 0 0 0 0 0 0 0 0 0 0 0 0 0 0 0
0 0 0 0 0 0 0 0 0 0 0 0 0 0 0 0 0 0 0 0 0 0 0 0 0 0 0 0 0 0 0 0 0 0 0 0 0 0 0 0 0 0 0 0
0 0 0 0 0 0 0 0 0 0 0 0 0 0 0 0 0 0 0 0 0 0 0 0 0 0 0 0 0 0 0 0 0 0 0 0 0 0 0 0 0 0 0 0
0 0 0 0 0 0 0 0 0 0 0 0 0 0 0 0 0 0 0 0 0 0 0 0 0 0 0 0 0 0 0 0 0 0 0 0 0 0 0 0 0 0 0 0
0 0 0 0 0 0 0 0 0 0 0 0 0 0 0 0 0 0 0 0 0 0 0 0 0 0 0 0 0 0 0 0 0 0 0 0 0 0 0 0 0 0 0 0
0 0 0 0 0 0 0 0 0 0 0 0 0 0 0 0 0 0 0 0 0 0 0 0 0 0 0 0 0 0 0 0 0 0 0 0 0 0 0 0 0 0 0 0
0 0 0 0 0 0 0 0 0 0 0 0 0 0 0 0 0 0 0 0 0 0 0 0 0 0 0 0 0 0 0 0 0 0 0 0 0 0 0 0 0 0 0 0
0 0 0 0 0 0 0 0 0 0 0 0 0 0 0 0 0 0 0 0 0 0 0 0 0 0 0 0 0 0 0 0 0 0 0 0 0 0 0 0 0 0 0 0
0 0 0 0 0 0 0 0 0 0 0 0 0 0 0 0 0 0 0 0 0 0 0 0 0 0 0 0 0 0 0 0 0 0 0 0 0 0 0 0 0 0 0 0
0 0 0 0 0 0 0 0 0 0 0 0 0 0 0 0 0 0 0 0 0 0 0 0 0 0 0 0 0 0 0 0 0 0 0 0 0 0 0 0 0 0 0 0
Wind_Speed
7 8 14 16 15 8 7 8 8 6 4 6 10 13 12 9 7 9 9 9 9 10 10 7 7 8 7 7 8 9 9 9 7 5 6 6 7 7 6 7 8 9 9 9
7 16 14 10 10 9 7 8 7 4 3 6 8 13 11 11 10 10 11 11 11 10 8 7 7 6 7 8 9 9 9 8 8 8 7 5 4 5 6 5 7 9 10 10
16 8 10 10 11 13 13 12 9 5 2 2 3 10 10 9 9 10 11 11 11 12 11 8 7 7 7 7 8 8 9 9 9 8 4 2 2 1 3 6 7 9 10 10
13 8 9 11 13 14 16 10 8 6 4 5 4 9 9 8 9 12 13 12 12 11 10 8 8 7 7 8 7 7 7 7 7 7 6 7 7 8 8 6 6 6 8 10
12 11 13 16 15 13 7 6 8 7 6 6 5 8 9 6 10 12 13 13 13 11 10 10 9 8 7 6 5 5 5 5 5 6 7 8 8 8 6 4 6 6 7 9
7 6 11 11 9 10 5 4 2 3 5 14 13 11 12 9 13 10 11 11 11 10 9 8 6 5 5 4 4 4 4 4 4 6 6 8 9 8 6 6 6 6 6 6
10 8 6 6 8 8 8 8 5 7 10 12 9 11 13 10 10 13 13 12 10 8 7 6 5 5 5 4 4 4 4 4 4 4 6 7 8 8 8 8 7 6 5 6
14 12 13 10 12 12 15 14 11 10 8 5 6 13 11 9 9 9 10 9 7 6 6 6 6 6 5 5 4 4 4 3 3 3 4 4 5 5 5 7 6 6 6 6
13 10 7 11 8 13 12 13 8 3 2 4 8 8 9 5 6 7 7 6 7 7 6 6 5 5 5 4 4 4 4 2 2 2 2 2 3 4 5 5 5 5 6 6
6 6 6 8 5 8 10 10 6 9 9 10 7 8 8 7 9 9 9 8 8 7 6 6 5 5 4 3 3 3 3 2 1 1 1 1 2 3 4 4 5 5 6 6
6 5 5 8 14 16 11 12 9 7 6 8 7 9 8 10 10 11 11 9 9 8 8 7 5 4 4 3 3 2 2 1 0 0 0 1 2 2 2 3 4 5 5 6
9 6 7 9 7 9 11 13 14 11 9 7 7 10 4 6 7 8 8 7 7 7 6 5 5 4 3 3 2 2 1 1 0 0 1 1 2 3 3 4 5 5 6 6
10 8 7 5 5 6 10 11 14 9 6 7 8 10 3 2 3 4 5 6 5 5 5 4 4 4 3 3 2 2 1 1 0 1 1 2 2 3 4 5 5 5 6 7
8 6 10 14 9 10 12 13 14 12 11 12 14 13 8 5 5 4 4 5 5 5 5 4 4 4 3 3 2 2 1 1 1 1 1 2 3 4 4 5 5 6 6 7
6 7 6 6 5 6 9 14 17 18 16 14 14 16 17 11 8 7 7 7 6 6 6 6 5 4 3 2 2 1 1 0 1 1 1 2 3 4 4 5 6 6 6 7
6 5 5 7 7 6 7 12 17 19 17 16 13 16 13 8 6 6 8 9 9 9 9 7 6 5 5 4 3 2 1 0 1 1 2 3 4 4 5 6 6 7 7 7
5 6 6 8 5 4 12 16 18 15 14 15 19 21 9 8 10 11 10 10 10 10 8 8 7 6 5 4 3 2 1 0 1 2 3 4 4 5 6 6 7 7 8 8
8 7 5 4 5 15 12 9 13 15 16 16 15 13 12 13 10 8 9 10 10 9 8 7 6 5 4 3 2 1 1 0 1 2 3 4 4 6 6 6 7 8 7 8
10 9 5 6 9 10 8 7 13 14 15 16 18 16 12 7 3 7 7 7 9 8 6 6 5 4 3 3 2 1 1 1 2 3 4 4 5 6 7 8 8 8 8 9
8 9 7 6 8 13 12 7 7 7 11 12 15 17 14 7 7 11 5 5 5 5 5 4 3 4 3 2 1 1 1 2 3 4 5 5 5 6 8 9 9 7 8 9
7 7 10 9 9 10 9 5 9 11 13 7 11 13 11 11 12 5 5 5 5 5 4 4 4 3 2 2 1 1 2 3 4 4 5 6 6 7 8 8 8 8 8 9
10 8 9 8 9 12 6 9 13 10 4 4 5 7 7 7 4 4 5 6 5 4 3 3 3 2 1 1 1 1 3 4 4 5 6 7 7 7 6 8 8 8 8 9
8 9 7 10 10 5 6 8 6 4 5 4 4 4 5 5 4 4 4 5 4 4 3 2 2 2 1 0 0 2 4 4 5 6 7 7 8 7 7 7 9 8 7 7
5 3 4 5 7 6 5 3 2 3 4 4 3 4 5 5 5 5 4 4 3 3 2 2 2 1 1 1 1 3 4 4 5 6 8 7 7 8 7 6 6 7 7 7
7 5 5 7 5 3 5 6 5 3 3 3 2 3 4 6 5 5 5 4 3 2 1 1 1 2 3 3 3 3 4 4 5 7 7 7 7 8 8 7 7 8 8 8
7 8 8 9 8 7 7 6 6 5 5 5 4 2 2 4 5 5 4 3 3 3 1 1 2 2 4 4 4 4 4 4 5 7 7 6 6 7 7 8 9 11 13 15
Wind_Direction
179 191 206 204 204 206 184 190 211 222 213 199 229 243 249 250 248 247 246 241 240 242 245 237 225 215 206 202 199 200 200 203 192 190 199 206 218 219 219 220 219 218 218 216
186 219 213 198 201 211 211 213 221 245 225 211 243 254 250 241 236 232 235 239 239 242 248 241 227 214 203 201 201 201 203 200 197 202 200 203 207 218 223 225 225 222 222 221
207 216 187 188 195 207 218 217 212 218 267 253 277 276 250 249 240 238 235 236 237 233 233 233 225 216 206 207 206 204 206 203 202 201 185 181 182 224 220 227 230 227 225 226
221 222 187 196 206 200 225 213 204 205 205 244 206 267 255 237 245 243 241 239 238 235 228 224 219 217 209 210 205 203 204 205 203 194 189 193 206 221 228 229 232 233 226 228
211 195 193 206 208 194 211 183 192 203 213 245 218 251 263 224 237 241 239 235 234 230 222 219 215 212 207 201 195 197 196 200 200 197 200 205 219 231 238 234 237 236 232 231
221 198 197 209 205 187 161 130 160 196 213 242 220 225 261 208 216 226 234 235 230 226 221 217 214 202 199 189 182 179 179 196 199 200 205 209 222 232 239 240 243 243 239 236
213 222 210 176 171 181 170 163 192 211 220 239 191 216 249 219 212 212 221 228 225 217 208 201 195 188 182 174 174 175 179 202 206 203 211 216 224 230 235 240 243 248 249 245
199 213 202 191 187 186 195 190 198 206 216 237 194 225 247 229 222 220 219 217 212 202 193 187 185 180 176 172 172 175 182 203 209 208 221 225 230 233 241 245 247 249 250 252
196 218 191 198 180 169 182 206 204 195 212 232 231 254 287 244 226 219 212 206 205 198 191 189 185 178 177 177 182 184 181 190 204 213 232 243 245 244 250 255 252 254 256 261
178 202 204 189 162 196 185 167 167 197 207 231 240 232 233 213 213 210 206 204 204 197 189 186 184 185 184 178 174 163 162 174 194 199 224 253 263 263 264 266 268 267 268 269
191 194 199 178 193 190 178 186 186 192 198 205 237 248 222 207 201 201 206 202 193 193 191 187 183 181 171 160 154 147 149 146 140 284 290 321 311 309 305 292 285 282 282 282
194 189 214 214 219 202 192 194 189 201 209 205 228 256 244 213 206 195 199 202 199 195 192 185 177 169 165 167 163 153 147 136 178 4 15 349 334 334 326 312 306 303 296 292
175 186 199 211 221 205 207 203 200 201 194 203 217 249 260 194 194 201 195 196 197 195 190 183 178 174 177 177 169 154 139 141 40 41 25 353 335 327 315 308 308 308 304 300
177 197 209 216 205 185 199 204 198 195 212 222 228 244 251 231 220 220 208 200 197 197 193 189 187 186 182 170 157 144 134 111 72 47 20 342 323 315 310 310 311 309 306 303
182 207 220 240 238 193 202 204 204 211 215 220 230 235 243 235 226 220 211 204 201 204 207 203 198 193 182 169 161 151 136 81 44 30 350 315 312 315 315 315 313 311 307 301
188 205 209 241 231 215 227 220 212 216 220 229 239 247 243 232 220 222 217 208 209 211 209 202 191 184 180 175 173 167 175 293 6 342 312 311 315 316 315 313 312 310 307 304
189 186 201 232 219 207 234 218 213 215 216 215 230 241 234 223 221 220 219 216 215 214 205 196 192 188 183 179 171 178 210 282 336 309 306 309 311 310 307 307 307 303 302 302
195 195 204 211 198 229 235 205 202 216 225 219 228 239 230 228 229 228 218 211 214 209 200 193 185 179 172 160 149 157 163 246 293 299 302 306 308 303 302 300 296 296 295 295
199 190 194 197 225 252 272 218 191 200 232 224 229 239 240 235 238 254 230 209 205 196 185 179 174 165 152 148 150 150 223 288 301 301 303 304 302 299 298 295 293 293 293 292
199 188 191 198 211 226 235 215 184 170 244 231 220 231 234 199 225 247 208 177 172 163 159 160 152 136 137 153 149 159 257 288 291 295 296 297 293 291 291 289 289 288 286 286
177 193 203 210 225 247 245 192 139 182 233 225 206 218 217 209 225 223 152 155 159 155 151 142 138 142 162 159 147 205 269 278 287 296 298 296 292 287 284 286 285 287 288 287
184 187 199 195 217 241 218 160 182 213 211 195 196 206 207 209 195 163 154 154 150 143 136 137 141 158 161 150 159 253 276 289 301 304 300 296 292 288 288 287 289 287 286 288
202 199 194 199 218 234 192 197 211 179 183 199 190 187 168 167 178 174 165 156 154 154 149 140 152 172 183 159 179 270 292 307 309 305 297 294 293 287 284 283 286 289 284 282
243 204 186 224 243 234 230 232 227 189 188 197 187 177 166 171 174 171 165 160 155 154 154 145 149 202 262 279 279 273 295 309 304 297 296 296 295 293 287 279 276 278 280 281
222 186 193 230 245 262 259 228 211 192 165 151 147 159 166 163 174 174 169 170 169 167 155 151 195 241 269 289 287 288 299 308 300 294 294 295 291 290 291 283 273 274 268 266
210 195 196 223 212 202 223 212 190 181 193 186 170 169 167 169 172 166 169 172 171 175 180 203 238 259 277 286 285 288 292 291 290 293 293 291 291 290 289 292 292 278 272 277